カタログに戻る

ATLAS 5 CENTAUR DEB

運用中HEO
NORAD 49348·DEBRIS·🇺🇸 United States

打ち上げ Oct 17, 2018 から Cape Canaveral Space Force Station

Loading…

次のパス (今後24時間)

TLE

古いSource: Space-Track

元期: Aug 15, 2026, 11:15 UTC

1 49348U 18079EZ  26227.46895759 -.00000125  00000-0  00000-0 0  9994
2 49348  13.2278 354.5501 4410335  48.1254 341.8787  2.01939869 36600

AllMySatでATLAS 5 CENTAUR DEBをリアルタイム追跡

Download on the App Store